Aérodrome :
LOGIN :

S'inscrire | Disclaimer

   EN    FR    IT 

 










Légende :    VFR   VFR Marginal   IFR   IFR Intensif   IFR Très Intensif
Visi : 
Plafond : 
>= 8 km
>= 3000ft
5 à 8 km
1000 à 3000 ft
1500m à 5 km
500 à 1000 ft
800 à 1500m
200 à 500 ft
< 800m
< 200 ft
Symboles :   Orages  Brouillard  Fortes neiges  Fortes précipitations  Vent > 20 kt
SIGMETs :   Divers  Orages  Givrage  Turbulence  Onde Orograph.  Cendres Volcan.







- Altitude de l'aérodrome : 26 ft
- Code IATA : GLA
- Voir les cartes d'approche


EGPF - Glasgow

DERNIER METAR :
  • 280650Z AUTO 06013KT 9999 SCT012 OVC043 13/11 Q1005

METARs EXPIRÉS :
  • 280620Z AUTO 06013KT 9999 FEW034 BKN040 13/11 Q1005
  • 280550Z AUTO 06013KT 9999 BKN020 OVC026 12/11 Q1005
  • 280520Z AUTO 06013KT 9999 BKN020 OVC042 12/11 Q1005
  • 280450Z AUTO 05011KT 9999 FEW011 BKN023 OVC034 12/11 Q1005
  • 280420Z AUTO 06011KT 9999 FEW020 OVC034 12/11 Q1005

TAF TAF EGPF
Valide du 28 à 06h jusqu'au 29 à 06h UTC


280504Z 2806/2906 07012KT 9999 SCT030
PROB30
TEMPO 2806/2809 BKN012
BECMG 2900/2903 01009KT
PROB30
TEMPO 2903/2906 6000 RA BKN014
ATIS : +44 141 887 7449
Pas de NOTAMs connus pour ce terrain.



MET'MAP, la Météo Aéronautique d'un coup d'oeil ! - Copyright ORBIFLY Décembre 2007 - Disclaimer

ORBIFLY MET'MAP TEAM :

Programmation & Développement : Alexandra Zaïnal
Conception & Développement : Baudouin d'Aumeries
Co-Programmation & Développement : Marc-Olivier Méhu
Soutien technique & logistique : Manuel Goepfert

Contact : metmap@orbifly.com




SOURCES & CREDITS :

   NOAA